Wind_Speed
21 23 24 23 23 23 23 21 22 23 23 23 22 20 20 17 20 26 23 17 12 14 12 4 5 9 7 3 10 10 3 7 9 10 11 12 12 11 9 7 15 20 20 23 29 29 26
23 25 24 23 24 24 24 23 22 22 24 22 22 21 19 19 16 20 23 18 13 12 8 4 8 9 5 6 4 7 7 10 10 11 13 14 9 9 11 12 16 10 19 25 25 25 24
27 26 25 23 24 25 24 24 24 24 22 24 23 21 18 16 15 21 22 15 9 8 9 8 6 7 9 12 6 8 10 10 8 9 14 13 17 11 3 8 4 12 17 15 20 26 19
27 26 28 23 25 25 25 26 23 25 24 23 24 22 20 14 13 19 22 14 9 8 6 6 7 9 7 5 8 11 10 8 8 8 7 5 8 12 10 6 5 3 9 11 12 20 24
30 27 26 26 25 26 25 24 25 24 24 24 24 21 19 14 9 21 19 12 5 2 4 6 6 6 7 4 7 6 5 6 7 4 1 6 9 7 5 6 6 6 8 12 11 20 10
28 29 28 25 27 26 27 25 25 24 22 22 25 22 20 11 7 17 14 7 4 4 5 7 6 3 6 3 5 6 6 6 7 3 4 5 4 5 5 6 6 7 11 4 6 13 15
31 30 30 28 28 27 26 26 25 23 22 22 24 22 19 14 10 18 13 8 6 2 10 8 8 3 2 4 7 5 4 5 6 5 4 3 5 9 12 13 13 12 13 1 4 10 13
32 32 31 31 30 29 29 29 28 25 24 23 22 22 19 17 8 16 14 7 7 5 5 11 10 9 9 5 1 4 2 6 6 5 3 4 8 6 7 9 11 15 12 6 3 5 5
33 32 31 31 31 31 31 28 28 26 26 22 20 20 16 7 8 11 7 10 9 6 2 2 8 8 6 6 2 4 3 5 4 3 4 6 7 4 4 9 12 12 12 8 4 6 3
34 33 33 33 34 32 32 31 30 28 26 22 18 15 9 5 7 6 6 9 10 8 1 5 5 4 6 5 2 6 4 4 4 3 4 5 4 4 4 4 5 8 7 12 9 5 3
40 37 36 36 36 34 36 32 30 36 30 19 19 9 8 5 5 6 7 11 13 5 3 5 3 4 5 5 4 6 5 3 2 2 4 0 3 2 3 3 2 1 7 10 8 5 4
41 40 38 38 37 36 33 31 31 34 28 26 15 8 9 6 9 7 9 16 11 3 2 4 4 5 5 4 4 4 4 1 1 3 1 4 3 3 2 3 5 8 10 9 5 2 2
52 40 40 40 39 37 36 30 31 12 5 6 9 7 9 11 4 12 15 15 3 2 2 6 4 6 4 5 5 4 3 4 2 3 1 1 3 5 2 2 4 2 11 4 3 3 3
50 41 42 41 40 39 38 35 12 9 6 5 7 6 8 10 12 17 22 2 4 2 4 2 4 6 2 6 2 3 3 3 3 0 1 2 2 3 2 0 1 1 3 3 4 4 4
43 43 44 40 37 33 30 11 5 5 3 4 3 2 6 8 16 20 12 3 2 3 4 7 8 5 4 3 3 5 1 0 1 3 2 2 2 4 4 3 4 2 2 3 7 6 6
41 44 42 35 34 32 17 3 3 3 3 1 1 0 7 8 23 26 3 2 1 2 3 9 4 6 5 7 6 4 1 2 2 3 3 1 1 4 5 4 3 3 4 2 1 4 5
42 43 38 29 26 20 13 8 4 3 3 2 2 1 6 12 26 14 2 3 2 8 7 6 2 4 4 5 3 2 3 3 2 1 3 3 4 2 2 5 6 2 2 2 3 3 4
39 38 30 24 19 17 15 10 6 2 2 6 3 1 4 32 5 2 3 5 1 4 5 3 2 3 4 3 3 3 3 2 5 3 3 3 3 3 2 1 5 3 5 4 2 4 4
34 31 28 24 19 17 13 9 5 3 6 3 3 1 10 16 2 3 3 2 2 2 4 1 0 0 2 4 3 4 2 1 4 2 3 1 2 3 2 2 3 4 6 6 4 3 4
30 27 25 24 21 16 12 8 8 3 6 4 2 2 6 10 3 6 4 2 3 2 2 2 1 2 4 4 3 5 5 1 2 3 6 2 4 4 4 5 3 3 7 8 4 5 9
28 25 24 23 22 21 17 17 13 12 9 5 2 1 2 4 2 7 4 1 3 2 1 3 1 2 5 3 3 4 3 3 3 4 3 2 3 3 6 5 3 5 6 9 6 5 6
26 23 24 22 25 27 25 21 17 19 18 15 7 3 4 6 10 7 2 4 3 0 1 4 2 4 2 4 2 5 5 2 1 2 2 2 4 2 3 7 6 6 7 5 5 4 8
26 23 25 25 24 22 11 17 19 30 34 10 9 9 3 5 3 4 5 2 5 3 3 3 2 4 7 3 3 9 6 7 4 2 2 2 3 2 2 6 5 4 4 3 3 1 2
24 26 26 24 18 12 6 13 20 23 22 15 15 12 5 3 5 7 5 4 1 1 2 3 3 2 4 20 16 15 16 14 12 9 3 4 3 2 1 2 1 2 2 3 2 3 2
23 26 27 21 13 4 9 23 21 15 9 16 18 5 3 4 5 5 4 3 3 7 4 2 5 6 12 2 3 3 2 3 5 6 6 2 2 3 1 1 1 1 3 3 3 2 2
23 22 22 22 15 3 12 20 18 13 15 15 6 7 4 8 3 3 5 2 2 2 2 3 5 14 0 2 2 1 2 1 2 2 3 4 4 1 2 2 4 3 2 1 2 4 5
20 18 18 20 19 6 17 24 21 16 12 8 7 6 4 7 3 6 3 3 4 2 3 3 3 1 4 2 1 0 1 2 2 4 4 3 1 2 3 2 2 4 6 3 4 3 11
17 15 13 13 14 9 16 24 18 14 14 4 7 4 3 7 7 6 5 4 3 2 3 6 4 1 2 1 1 1 1 2 2 0 3 6 4 3 3 3 5 8 6 5 3 6 10
11 9 12 15 9 6 15 18 17 12 8 3 5 9 16 7 8 10 8 6 4 3 5 9 1 2 2 3 1 2 2 2 1 2 1 4 3 1 5 1 2 8 1 4 7 8 9
Wind_Direction
331 329 327 326 326 325 326 326 327 328 330 332 331 320 272 286 274 266 286 271 276 282 297 299 242 269 294 299 262 256 241 293 292 276 269 268 258 253 254 242 244 234 244 242 245 252 254
330 327 325 325 323 323 322 323 323 323 326 329 325 327 292 276 291 281 264 269 261 275 306 251 250 269 264 263 257 232 270 296 295 285 274 253 231 249 265 257 242 250 244 246 247 251 250
329 325 322 320 318 319 321 323 324 324 322 324 326 326 314 286 279 265 257 257 244 271 280 236 238 245 260 257 255 244 273 291 297 302 288 268 238 217 281 250 306 263 260 254 245 241 243
326 324 321 316 313 312 315 316 317 320 320 322 321 326 320 312 290 244 244 237 246 266 251 210 212 224 248 267 242 265 269 274 283 311 331 337 197 196 235 283 270 353 259 245 243 219 229
324 323 322 318 314 311 310 310 311 311 313 318 322 329 324 321 299 234 235 241 240 217 212 193 202 206 263 218 260 282 237 245 258 306 123 132 158 209 213 252 270 213 267 211 213 193 187
326 322 319 318 313 307 309 308 308 306 311 315 323 327 327 326 290 239 229 227 185 191 208 185 211 230 244 208 246 263 227 254 247 233 194 179 230 238 214 210 252 301 232 215 164 184 198
324 319 315 312 310 310 309 309 307 307 309 312 318 323 325 325 264 240 240 159 139 170 191 212 200 195 169 248 271 215 240 257 229 219 213 217 235 234 226 225 240 257 279 233 39 161 194
323 320 316 314 314 314 311 310 309 306 305 305 304 317 321 325 253 232 234 193 184 149 240 235 222 240 255 274 212 209 257 228 227 241 205 204 242 269 266 260 242 239 228 143 113 161 148
323 320 316 313 312 310 305 304 306 306 302 300 294 313 318 341 245 201 207 178 188 161 225 233 226 226 240 209 210 187 210 217 248 214 227 259 302 311 275 200 222 232 199 170 143 153 183
325 320 315 312 312 310 305 305 304 301 297 294 288 299 299 305 277 236 177 198 173 167 227 158 181 199 186 173 227 193 220 219 210 254 264 264 301 337 308 175 259 194 218 176 139 220 114
329 319 315 313 314 314 311 308 308 294 289 280 287 267 273 243 251 206 196 173 166 146 224 151 124 163 187 178 107 207 221 211 227 206 251 296 338 279 294 285 250 253 165 181 203 240 167
340 319 316 315 316 315 311 308 299 301 289 278 249 261 243 237 213 205 162 160 151 200 152 149 132 195 183 170 188 193 218 254 294 250 323 268 294 285 317 324 333 312 149 161 181 217 101
330 323 319 319 317 318 309 305 301 308 328 256 224 236 216 206 205 171 173 150 194 237 148 152 179 190 201 177 188 198 173 192 238 203 137 310 297 301 319 345 83 217 170 143 153 68 53
335 329 324 318 315 312 312 307 313 310 310 253 245 218 225 235 204 179 168 215 229 113 180 116 142 145 162 175 105 166 193 196 178 208 168 244 220 15 334 115 80 220 293 296 112 132 115
334 331 329 334 332 325 316 338 342 1 279 260 219 261 258 225 189 193 160 217 67 161 140 169 150 153 188 159 230 196 185 89 39 201 315 251 138 299 261 182 200 177 254 344 109 76 85
336 334 334 334 331 341 343 78 8 20 301 231 168 294 226 222 184 185 192 193 133 181 243 176 170 205 155 173 188 199 163 98 11 218 275 31 249 354 333 323 197 281 332 196 23 116 99
341 340 339 347 353 2 29 25 6 351 6 41 313 181 212 175 174 163 197 102 203 263 245 219 153 146 142 153 183 110 91 90 301 128 260 302 274 31 250 16 353 355 64 55 101 5 114
343 349 353 357 4 10 9 13 11 345 320 325 116 37 307 173 104 167 130 118 238 300 203 257 205 114 160 137 95 87 92 78 266 247 319 14 46 56 34 323 285 317 5 4 24 73 45
343 349 356 356 359 3 1 350 350 294 287 353 109 142 158 130 120 121 104 90 313 306 205 289 243 324 179 124 114 90 106 344 283 287 5 47 56 144 149 177 177 33 10 22 46 53 35
342 345 350 349 347 355 335 304 275 242 270 326 54 73 92 197 6 134 102 117 268 254 271 275 33 127 126 74 44 135 119 77 322 74 41 24 48 23 58 49 342 32 26 12 25 54 84
340 345 345 351 344 339 331 314 289 256 220 208 139 49 140 145 123 118 122 115 219 283 192 25 155 178 126 105 95 119 116 123 56 12 46 18 71 35 61 42 54 58 59 38 62 47 89
337 342 343 345 342 347 356 349 311 229 193 167 150 159 79 89 116 114 149 199 220 251 306 167 180 130 120 129 327 171 144 169 125 80 49 46 127 163 70 33 47 87 69 82 60 88 99
338 342 345 346 350 5 19 31 39 156 176 159 164 157 123 106 128 134 179 163 194 177 60 16 167 116 88 47 77 97 82 90 89 88 79 23 132 1 43 9 357 82 41 86 112 107 105
345 347 350 349 351 16 120 104 97 140 164 171 163 154 142 147 169 194 177 208 59 272 88 5 21 77 107 112 98 86 80 82 74 53 26 126 100 32 55 342 83 58 11 343 120 79 119
353 351 351 347 357 33 157 140 136 147 168 183 167 159 125 112 141 163 197 152 104 53 52 27 15 129 143 61 115 123 103 152 48 38 30 33 125 97 210 162 43 229 226 203 207 159 186
357 359 357 6 6 341 171 155 159 140 146 157 128 109 120 125 131 124 133 136 128 103 87 37 92 144 140 55 67 148 183 81 144 109 42 69 88 108 142 204 200 89 165 205 255 212 181
360 10 10 3 8 99 155 159 161 141 142 149 151 124 104 100 125 135 127 143 125 111 97 114 147 233 45 57 85 165 129 338 183 188 184 149 150 199 186 260 250 157 140 140 205 105 153
359 13 9 4 25 67 134 155 160 162 170 81 87 110 92 103 130 159 142 141 149 207 155 147 150 176 100 124 248 129 225 154 227 207 190 200 190 196 177 217 244 153 132 211 91 127 155
358 20 22 351 358 115 143 153 162 153 197 184 52 92 109 102 133 122 145 162 185 177 132 161 359 115 128 107 156 138 182 189 217 223 192 214 238 228 227 241 72 177 288 180 162 164 171
Height
1543 1541 1536 1533 1530 1527 1523 1519 1515 1511 1507 1503 1500 1496 1495 1495 1494 1494 1494 1491 1490 1491 1490 1488 1490 1492 1491 1493 1492 1492 1491 1491 1491 1490 1490 1490 1489 1489 1487 1484 1482 1478 1477 1477 1476 1477 1477
1540 1537 1532 1529 1526 1523 1520 1515 1512 1508 1504 1499 1496 1492 1489 1489 1488 1487 1488 1487 1486 1486 1487 1487 1487 1487 1488 1492 1487 1490 1490 1489 1488 1486 1485 1486 1485 1486 1485 1482 1479 1471 1472 1471 1471 1470 1471
1537 1533 1529 1526 1523 1518 1514 1510 1508 1504 1500 1498 1492 1487 1483 1482 1481 1483 1483 1483 1482 1483 1484 1484 1483 1484 1488 1487 1485 1487 1487 1487 1486 1484 1482 1479 1480 1483 1483 1478 1475 1473 1469 1467 1464 1465 1466
1534 1530 1526 1522 1518 1515 1511 1508 1503 1501 1497 1493 1489 1484 1480 1478 1476 1477 1477 1478 1479 1480 1481 1481 1481 1483 1485 1482 1483 1484 1484 1484 1483 1481 1478 1475 1474 1480 1480 1475 1472 1475 1469 1464 1451 1456 1460
1529 1524 1521 1518 1514 1510 1506 1502 1499 1495 1492 1490 1486 1481 1477 1475 1474 1472 1472 1474 1475 1477 1479 1480 1481 1482 1481 1479 1481 1482 1481 1482 1482 1480 1478 1477 1477 1476 1475 1471 1469 1465 1458 1456 1448 1447 1453
1526 1520 1516 1511 1509 1505 1502 1498 1494 1491 1488 1485 1482 1477 1473 1472 1472 1470 1469 1472 1472 1475 1479 1480 1480 1484 1478 1478 1478 1479 1480 1480 1480 1479 1478 1476 1476 1471 1470 1468 1456 1456 1448 1439 1437 1445 1450
1522 1517 1511 1507 1503 1500 1496 1492 1488 1485 1483 1480 1478 1474 1470 1468 1468 1467 1468 1470 1474 1477 1476 1475 1472 1473 1474 1476 1476 1477 1478 1478 1478 1476 1474 1474 1474 1468 1459 1458 1458 1466 1451 1440 1444 1442 1445
1517 1512 1507 1502 1497 1493 1489 1485 1482 1478 1476 1475 1472 1471 1467 1463 1461 1463 1465 1464 1469 1469 1471 1469 1470 1471 1473 1474 1475 1475 1477 1479 1474 1469 1470 1473 1466 1457 1460 1459 1459 1459 1447 1443 1447 1446 1445
1511 1506 1501 1495 1490 1486 1482 1478 1475 1472 1470 1469 1467 1467 1465 1463 1461 1461 1462 1465 1465 1467 1469 1468 1467 1469 1473 1473 1472 1474 1476 1475 1470 1468 1466 1463 1457 1457 1451 1452 1454 1445 1437 1443 1445 1444 1444
1505 1499 1493 1487 1482 1478 1473 1469 1467 1464 1463 1462 1462 1463 1463 1463 1464 1460 1460 1462 1464 1466 1467 1466 1466 1467 1471 1470 1470 1472 1473 1473 1468 1465 1464 1461 1457 1454 1448 1446 1447 1438 1436 1439 1446 1442 1434
1499 1491 1485 1480 1474 1469 1465 1461 1458 1455 1454 1455 1457 1459 1459 1460 1460 1460 1461 1461 1463 1466 1448 1466 1466 1467 1468 1469 1471 1471 1470 1469 1464 1464 1466 1457 1455 1456 1450 1449 1448 1438 1437 1438 1440 1436 1428
1493 1486 1480 1473 1468 1462 1458 1454 1448 1444 1443 1445 1450 1455 1456 1457 1459 1459 1460 1461 1464 1463 1450 1462 1464 1467 1467 1467 1469 1469 1468 1467 1466 1465 1464 1458 1457 1456 1452 1451 1447 1442 1438 1439 1438 1434 1435
1487 1479 1473 1467 1460 1455 1449 1445 1441 1440 1438 1441 1446 1450 1453 1454 1457 1457 1460 1463 1460 1447 1461 1461 1462 1464 1463 1464 1466 1465 1463 1463 1461 1462 1460 1456 1458 1455 1453 1451 1449 1444 1436 1441 1441 1439 1445
1479 1474 1467 1458 1452 1446 1441 1434 1436 1438 1438 1440 1444 1447 1449 1452 1456 1457 1460 1463 1449 1452 1457 1459 1460 1463 1463 1460 1462 1462 1462 1458 1462 1460 1455 1454 1453 1457 1452 1450 1451 1450 1446 1433 1432 1434 1444
1474 1466 1459 1449 1442 1436 1434 1431 1433 1435 1437 1439 1442 1443 1446 1449 1452 1457 1460 1455 1447 1452 1455 1455 1459 1459 1461 1460 1460 1460 1459 1458 1458 1461 1456 1453 1454 1457 1453 1451 1453 1447 1443 1440 1436 1434 1433
1470 1461 1453 1446 1440 1433 1428 1429 1433 1435 1437 1439 1440 1442 1443 1445 1449 1456 1460 1450 1453 1455 1454 1453 1447 1452 1453 1458 1457 1455 1455 1457 1458 1460 1460 1455 1454 1457 1453 1449 1447 1444 1443 1437 1435 1438 1448
1465 1458 1451 1444 1439 1436 1434 1434 1435 1436 1437 1438 1439 1441 1441 1443 1451 1456 1454 1452 1456 1454 1455 1452 1449 1452 1451 1454 1454 1454 1457 1459 1460 1459 1459 1454 1452 1456 1453 1454 1452 1444 1440 1442 1438 1442 1430
1463 1457 1449 1445 1441 1440 1439 1437 1437 1437 1438 1438 1439 1440 1438 1443 1450 1455 1452 1454 1456 1453 1454 1452 1451 1451 1449 1454 1453 1453 1455 1461 1460 1458 1455 1455 1451 1456 1456 1454 1454 1449 1446 1440 1431 1446 1454
1460 1456 1450 1446 1443 1439 1438 1437 1437 1436 1437 1438 1440 1441 1442 1445 1449 1452 1457 1457 1457 1454 1452 1451 1449 1450 1452 1452 1454 1456 1459 1461 1459 1457 1454 1455 1457 1454 1453 1454 1452 1449 1449 1447 1445 1446 1461
1457 1454 1451 1446 1443 1439 1436 1436 1436 1436 1437 1440 1442 1443 1447 1451 1451 1451 1455 1457 1456 1453 1453 1452 1451 1451 1450 1453 1455 1457 1457 1460 1460 1459 1458 1456 1459 1459 1452 1458 1461 1457 1455 1452 1450 1448 1449
1456 1451 1449 1444 1440 1435 1432 1430 1429 1433 1437 1442 1443 1445 1446 1449 1454 1454 1458 1459 1454 1453 1454 1452 1451 1450 1449 1453 1454 1456 1458 1459 1460 1461 1460 1459 1468 1472 1466 1466 1462 1460 1459 1457 1462 1461 1456
1453 1449 1445 1442 1438 1432 1428 1423 1416 1421 1433 1440 1442 1444 1447 1449 1455 1457 1460 1459 1454 1454 1453 1453 1452 1453 1451 1451 1452 1455 1456 1457 1457 1461 1460 1463 1469 1471 1464 1465 1465 1466 1464 1464 1463 1466 1467
1451 1446 1442 1439 1435 1431 1428 1423 1408 1411 1427 1436 1439 1442 1446 1452 1455 1457 1458 1456 1453 1455 1455 1455 1454 1452 1453 1458 1457 1457 1459 1459 1459 1460 1461 1462 1464 1463 1464 1468 1463 1458 1467 1467 1468 1470 1467
1447 1444 1440 1437 1434 1431 1430 1430 1429 1429 1434 1437 1438 1440 1443 1451 1453 1453 1456 1457 1456 1457 1455 1457 1457 1454 1462 1461 1462 1462 1462 1463 1464 1466 1465 1464 1466 1469 1468 1469 1464 1468 1471 1471 1469 1471 1472
1446 1441 1437 1434 1430 1430 1430 1431 1433 1436 1438 1439 1440 1441 1442 1449 1452 1455 1457 1458 1458 1458 1460 1461 1460 1460 1462 1462 1461 1462 1463 1464 1468 1470 1468 1466 1465 1469 1467 1469 1473 1470 1471 1470 1467 1469 1472
1446 1442 1436 1432 1428 1427 1429 1431 1435 1437 1440 1443 1442 1441 1441 1444 1453 1454 1456 1458 1460 1462 1463 1464 1464 1464 1465 1465 1463 1465 1464 1466 1467 1469 1471 1469 1466 1465 1473 1470 1466 1465 1470 1472 1472 1466 1471
1446 1443 1439 1434 1430 1425 1427 1432 1438 1440 1441 1444 1444 1443 1443 1446 1452 1454 1456 1458 1460 1462 1462 1465 1466 1466 1464 1465 1465 1466 1466 1474 1466 1466 1468 1467 1468 1468 1468 1468 1464 1467 1470 1473 1469 1466 1470
1445 1443 1441 1438 1438 1434 1432 1435 1440 1443 1443 1443 1444 1444 1444 1447 1454 1455 1456 1458 1460 1461 1458 1465 1467 1466 1466 1466 1466 1469 1468 1471 1471 1472 1467 1466 1467 1467 1471 1470 1468 1467 1471 1469 1466 1468 1470
1444 1442 1440 1439 1440 1441 1440 1441 1442 1445 1446 1446 1445 1445 1445 1448 1457 1457 1458 1458 1460 1461 1462 1463 1464 1463 1465 1467 1471 1472 1470 1476 1471 1464 1475 1468 1465 1462 1464 1460 1464 1465 1466 1466 1467 1468 1470